TimePDT,TemperatureF,Dew PointF,Humidity,Sea Level PressureIn,VisibilityMPH,Wind Direction,Wind SpeedMPH,Gust SpeedMPH,PrecipitationIn,Events,Conditions,WindDirDegrees,DateUTC
12:52 AM,60.1,30.0,32,29.96,10.0,WNW,5.8,-,N/A,,Clear,300,2013-06-08 07:52:00
1:52 AM,60.1,37.9,44,29.97,10.0,Calm,Calm,-,N/A,,Clear,0,2013-06-08 08:52:00
2:52 AM,59.0,32.0,36,29.98,10.0,West,6.9,-,N/A,,Clear,280,2013-06-08 09:52:00
3:52 AM,57.9,33.1,39,29.99,10.0,SW,4.6,-,N/A,,Clear,230,2013-06-08 10:52:00
4:52 AM,55.9,37.0,49,30.00,10.0,WSW,4.6,-,N/A,,Clear,240,2013-06-08 11:52:00
5:52 AM,55.9,39.0,53,30.01,10.0,WSW,5.8,-,N/A,,Clear,250,2013-06-08 12:52:00
6:52 AM,62.1,36.0,38,30.03,10.0,West,9.2,-,N/A,,Clear,270,2013-06-08 13:52:00
7:52 AM,66.0,37.9,36,30.03,10.0,WSW,6.9,-,N/A,,Clear,250,2013-06-08 14:52:00
8:52 AM,70.0,32.0,25,30.02,10.0,Variable,4.6,-,N/A,,Clear,0,2013-06-08 15:52:00
9:52 AM,72.0,30.9,22,30.02,10.0,WSW,5.8,-,N/A,,Clear,250,2013-06-08 16:52:00
10:52 AM,73.9,30.9,21,30.01,10.0,SSW,9.2,-,N/A,,Clear,210,2013-06-08 17:52:00
11:52 AM,75.9,33.1,21,30.00,10.0,SSW,8.1,-,N/A,,Clear,200,2013-06-08 18:52:00
12:52 PM,79.0,34.0,20,29.98,10.0,South,8.1,-,N/A,,Clear,190,2013-06-08 19:52:00
1:52 PM,82.0,35.1,18,29.96,10.0,West,9.2,-,N/A,,Clear,260,2013-06-08 20:52:00
2:52 PM,84.9,37.0,18,29.93,10.0,SW,13.8,17.3,N/A,,Clear,220,2013-06-08 21:52:00
3:52 PM,87.1,36.0,16,29.91,10.0,West,12.7,24.2,N/A,,Clear,260,2013-06-08 22:52:00
4:52 PM,87.1,37.9,18,29.89,10.0,SW,17.3,26.5,N/A,,Clear,230,2013-06-08 23:52:00
5:52 PM,87.1,37.9,18,29.87,10.0,WSW,11.5,-,N/A,,Clear,250,2013-06-09 00:52:00
6:52 PM,84.9,43.0,23,29.88,10.0,SW,16.1,23.0,N/A,,Clear,230,2013-06-09 01:52:00
7:24 PM,82.4,39.2,21,29.90,10.0,NNW,18.4,-,N/A,,Clear,330,2013-06-09 02:24:00
7:52 PM,79.0,39.9,25,29.89,10.0,NW,19.6,25.3,N/A,,Clear,320,2013-06-09 02:52:00
8:52 PM,73.9,39.9,29,29.89,10.0,WNW,13.8,23.0,N/A,,Clear,300,2013-06-09 03:52:00
9:52 PM,69.1,41.0,36,29.92,10.0,NW,6.9,-,N/A,,Clear,310,2013-06-09 04:52:00
10:52 PM,66.0,39.9,38,29.91,10.0,North,9.2,-,N/A,,Clear,350,2013-06-09 05:52:00
11:52 PM,66.9,37.9,34,29.91,10.0,WSW,8.1,-,N/A,,Clear,250,2013-06-09 06:52:00